STARLINK-1504, 45746

Orbit data source: Space-Track

STARLINK-1504, 45746 is a payload satellite owned by SpaceX/Seattle (US) in LEO that was launched on Sat, 13 Jun 2020 UTC via an FALCON 9 launch vehicle from the Air Force Eastern Test Range (AFETR). Payload-class satellites include a variety of spacecraft equipped with specific instruments for various scientific and technological missions. These include communications satellites like Starlink; space stations such as the ISS; scientific satellites like the Hubble; Earth observation satellites from companies like Planet Labs, Umbra, and HawkEye 360; GPS; miniature CubeSats for education and research; and military/defense satellites.

Loading next visibility...
Identifier
45746, 2020-038S
Orbit
LEO
Country
Flag of USUS
Related business
Manufacturer
SpaceX/Seattle
Mission
Partially operational Commercial Communications
Bus & Motor
STARLINK, Unknown motor
Mass
260 kg wet, ~248 kg dry
Launch date (UTC)
2020-06-13 (5 years ago)
Launch vehicle
FALCON 9
Launch site
Air Force Eastern Test Range (AFETR)
Object type
Payload
Rocket body
Debris
Shape & HBR
Box + 1 Pan, 10.1 m
Radar Cross Section
13.562 m², Large (>1 m²)

Expand to show TLE details & history
Last TLE update: 1 day ago

TLE from 1 day ago
0 STARLINK-1504
1 45746U 20038S   25304.57041244  .00044619  00000-0  10908-2 0  9994
2 45746  53.0286  39.6318 0002136 217.0213 143.0644 15.40390985297521
Epoch: 2025-10-31T13:41Z
TLE epoch observation values (Epoch: 2025-10-31T13:41:23.634Z)
Latitude
0.00001°
Longitude
154.17039°
Altitude
447.009 km
Speed
7.645 km/s
True Right ascension
02h 38m 31s
True Declination
0° 00' 00"
Sunlit
Object was in full shadow at epoch
Visualization orbit readout
Latitude
Unknown
Longitude
Unknown
Altitude
Unknown
Speed
Unknown
Apparent Right ascension
Unknown
Apparent Declination
Unknown
Sunlit
N/A
Visualization observer readout
Local Sidereal Time
12:56:36
Azimuth
Unknown
Elevation
Unknown
Doppler factor
Unknown
Orbital elements
Apogee altitude
446.691 km
Perigee altitude
443.776 km
Semi-major axis
6,823.37 km
Eccentricity
0.00021
Inclination
53.0286°
RAAN
39.6318°
Arg. of periapsis
217.0213°
True anomaly
143.07911°
Mean anomaly
143.0644°
Eccentric anomaly
143.07175°
Mean motion
3.85074 °/min
Orbital period
93.49 mins
BSTAR
0.0010908
Loading maneuver chart data...
Computing Atmospheric mass density...

Documentation

Showing up to 5 results
|